sat.trackr.live / text

‹ back to catalog

STARLINK-11707 [DTC]

NORAD 64328 · 2025-124M

PAYLOAD ACTIVE UNKNOWN

§ Identity

Operator
Country
US
Launch date
2025-06-10
Launch site
AFETR
Launch vehicle
Mass (kg)
RCS (m²)

Purposes: comms

External: N2YO · Heavens-Above · Gunter

§ Orbital elements

Epoch: 2026-09-19T10:00:48.660768Z

Period
91.67 min
Inclination
43.0013°
Eccentricity
0.0004162
Mean motion
15.70882374 rev/d
Perigee alt
353.6 km
Apogee alt
359.2 km
Semi-major
6,734.5 km
B*
8.9617e-4
RAAN
301.4046°
Arg perigee
263.0337°
Mean anomaly
97.0058°
Rev number
7,330

§ Raw data

STARLINK-11707 [DTC]1 64328U 25124M   26262.41722987  .00116411  00000+0  89617-3 0  99922 64328  43.0013 301.4046 0004162 263.0337  97.0058 15.70882374 73308

JSON: /api/v1/satellites/64328 · /tle

For live sub-satellite position, see the globe view (requires WebGL).

§ Visibility from observer

Set your observer location to see the next 7 days of passes ≥ 10°. The values pass through the URL so the page stays shareable.

No JS? Fill the form by hand. The geolocation button needs JavaScript.